Showing default

GONETS D1 1, 23787

Orbit data source: Space-Track

GONETS D1 1, 23787 is a payload satellite owned by Gonets (CIS) in LEO that was launched on Mon, 19 Feb 1996 UTC via a TSIKLON-3 launch vehicle from the Plesetsk Missile And Space Complex (PKMTR). Payload-class satellites include a variety of spacecraft equipped with specific instruments for various scientific and technological missions. These include communications satellites like Starlink; space stations such as the ISS; scientific satellites like the Hubble; Earth observation satellites from companies like Planet Labs, Umbra, and HawkEye 360; GPS; miniature CubeSats for education and research; and military/defense satellites.

Loading next visibility...
Identifier
23787, 1996-009A
Orbit
LEO
Country
Flag of CISCIS
Related business
Manufacturer
NPO PM
Mission
Non-operational Civil Communications
Bus & Motor
STRELA-3, Unknown motor
Mass
225 kg wet, 225 kg dry
Launch date (UTC)
1996-02-19 (30 years ago)
Launch vehicle
TSIKLON-3
Launch site
Plesetsk Missile And Space Complex (PKMTR)
Object type
Payload
Rocket body
Debris
Shape & HBR
Cyl + 1 Ant, 3.5 m
Radar Cross Section
1.798 m², Medium (>0.1 m² and < 1m²)

Expand to show TLE details & history
Last TLE update: 18 hours ago

TLE from 18 hours ago
0 GONETS D1 1
1 23787U 96009A   25309.17203464  .00000008  00000-0 -17131-4 0  9993
2 23787  82.5748  82.3500 0011255 186.9588 346.6991 12.64100311371008
Epoch: 2025-11-05T04:07Z
TLE epoch observation values (Epoch: 2025-11-05T04:07:43.792Z)
Latitude
6.24559°
Longitude
154.95583°
Altitude
1,399.68 km
Speed
7.164 km/s
True Right ascension
17h 26m 08s
True Declination
6° 12' 42"
Sunlit
Object was in daylight at epoch
Visualization orbit readout
Latitude
Unknown
Longitude
Unknown
Altitude
Unknown
Speed
Unknown
Apparent Right ascension
Unknown
Apparent Declination
Unknown
Sunlit
N/A
Visualization observer readout
Local Sidereal Time
17:53:24
Azimuth
Unknown
Elevation
Unknown
Doppler factor
Unknown
Orbital elements
Apogee altitude
1,412.142 km
Perigee altitude
1,394.626 km
Semi-major axis
7,781.521 km
Eccentricity
0.00113
Inclination
82.5748°
RAAN
82.35°
Arg. of periapsis
186.9588°
True anomaly
346.66939°
Mean anomaly
346.6991°
Eccentric anomaly
346.68425°
Mean motion
3.16189 °/min
Orbital period
113.86 mins
BSTAR
-0.000017131
Loading maneuver chart data...
Computing Atmospheric mass density...
Loading historical data...
Loading historical data...
Loading historical data...
Loading historical data...
Loading historical data...
Loading historical data...
Loading historical data...

Documentation

Showing up to 5 results
|